Regional Weather Roundup
Issued by NWS

Home | Current Version | Previous Version | Text Only | Print | Product List | Glossary On
Versions: 1 2 3 4 5 6 7 8 9 10 11 12 13 14 15 16 17 18 19 20 21 22 23 24 25 26 27 28 29 30 31 32 33 34 35 36 37 38 39 40 41 42 43 44 45 46 47 48 49 50
000
ASUS44 KBMX 010810
RWRAL

ALABAMA REGIONAL WEATHER ROUNDUP
NATIONAL WEATHER SERVICE BIRMINGHAM AL
300 AM CDT WED OCT 01 2014

NOTE: "FAIR" INDICATES FEW OR NO CLOUDS BELOW 12,000 FEET
WITH NO SIGNIFICANT WEATHER AND/OR OBSTRUCTIONS TO VISIBILITY.

THE REMARK "TC" DENOTES TEMPERATURE IN DEGREES CELSIUS.

ALZ001>011-014-016>018-020-010900-
NORTH ALABAMA

CITY           SKY/WX    TMP DP  RH WIND       PRES   REMARKS
MUSCLE SHOALS  CLEAR     60  57  89 CALM      29.93S
HUNTSVILLE     CLEAR     63  60  90 E5        29.93S
DECATUR        CLEAR     60  57  89 CALM      29.93F
HALEYVILLE     FAIR      60  60 100 CALM      29.96S
GADSDEN        CLEAR     57  55  94 CALM      29.93F
$$

ALZ012-013-022-023-030>036-040>044-010900-
WEST CENTRAL ALABAMA

CITY           SKY/WX    TMP DP  RH WIND       PRES   REMARKS
TUSCALOOSA     CLEAR     62  60  93 CALM      29.92S
$$

ALZ015-024>027-033>036-040>044-010900-
CENTRAL ALABAMA

CITY           SKY/WX    TMP DP  RH WIND       PRES   REMARKS
BIRMINGHAM     CLEAR     63  60  90 CALM      29.94S
MONTGOMERY     CLEAR     66  64  94 CALM      29.92R FOG
SHELBY CO ARPT CLEAR     62  60  93 CALM      29.93S
MAXWELL AFB    CLEAR     64  64 100 W1        29.91S FOG
GREENVILLE     MOCLDY    62  59  90 CALM      29.91S
$$

ALZ019-021-028-029-037-038-045>048-010900-
EAST CENTRAL ALABAMA

CITY           SKY/WX    TMP DP  RH WIND       PRES   REMARKS
ANNISTON       CLEAR     62  60  93 E3        29.94S
ALEXANDER CITY CLEAR     63  62  94 CALM      29.93S
AUBURN         CLEAR     63  61  94 CALM      29.96S
$$

ALZ051>064-010900-
SOUTHWEST ALABAMA

CITY           SKY/WX    TMP DP  RH WIND       PRES   REMARKS
MOBILE         CLEAR     66  66 100 CALM      29.91S
BROOKLEY FIELD CLEAR     73  70  90 E7        29.91S
EVERGREEN      FOG       63  61  93 CALM      29.92S VSB 3/4
$$

ALZ049-050-065>069-010900-
SOUTHEAST ALABAMA

CITY           SKY/WX    TMP DP  RH WIND       PRES   REMARKS
DOTHAN         PTCLDY    63  63 100 CALM      29.94S FOG
OZARK          CLEAR     63  62  97 CALM      29.91S
TROY           FOG       61  60  97 CALM      29.92S VSB 1/2
EUFAULA        MOCLDY    62  61  96 CALM      29.91S
$$



USA.gov is the U.S. government's official web portal to all federal, state and local government web resources and services.